sat.trackr.live / text

‹ back to catalog

GEESAT-1 04

NORAD 52788 · 2022-058D

PAYLOAD ACTIVE UNKNOWN

§ Identity

Operator
Country
PRC
Launch date
2022-06-02
Launch site
XICLF
Launch vehicle
Mass (kg)
RCS (m²)

External: N2YO · Heavens-Above · Gunter

§ Orbital elements

Epoch: 2026-05-25T04:05:45.055104Z

Period
97.21 min
Inclination
50.0053°
Eccentricity
0.0009710
Mean motion
14.81308409 rev/d
Perigee alt
618.4 km
Apogee alt
632.0 km
Semi-major
7,003.3 km
B*
2.2704e-4
RAAN
309.3159°
Arg perigee
62.2424°
Mean anomaly
297.9497°
Rev number
21,651

§ Raw data

GEESAT-1 041 52788U 22058D   26145.17066036  .00001568  00000+0  22704-3 0  99912 52788  50.0053 309.3159 0009710  62.2424 297.9497 14.81308409216512

JSON: /api/v1/satellites/52788 · /tle

For live sub-satellite position, see the globe view (requires WebGL).

§ Visibility from observer

Set your observer location to see the next 7 days of passes ≥ 10°. The values pass through the URL so the page stays shareable.

No JS? Fill the form by hand. The geolocation button needs JavaScript.